Time,TemperatureF,DewpointF,PressureIn,WindDirection,WindDirectionDegrees,WindSpeedMPH,WindSpeedGustMPH,Humidity,HourlyPrecipIn,Conditions,Clouds,dailyrainin,SoftwareType,DateUTC
2017-06-26 00:01:00,93.8,54.0,29.80,West,277,1.0,10.0,26,0.00,,,0.00,weatherlink.com 1.10,2017-06-26 07:01:00,
2017-06-26 00:16:00,92.9,53.0,29.81,West,259,0.0,7.0,26,0.00,,,0.00,weatherlink.com 1.10,2017-06-26 07:16:00,
2017-06-26 00:31:00,92.2,55.0,29.82,West,280,0.0,11.0,28,0.00,,,0.00,weatherlink.com 1.10,2017-06-26 07:31:00,
2017-06-26 00:46:00,90.9,53.0,29.83,SE,128,0.0,9.0,27,0.00,,,0.00,weatherlink.com 1.10,2017-06-26 07:46:00,
2017-06-26 01:01:00,89.3,52.0,29.84,South,188,7.0,11.0,28,0.00,,,0.00,weatherlink.com 1.10,2017-06-26 08:01:00,
2017-06-26 01:17:00,88.1,53.0,29.84,NW,304,0.0,17.0,30,0.00,,,0.00,weatherlink.com 1.10,2017-06-26 08:17:00,
2017-06-26 01:32:00,87.7,53.0,29.84,SSE,148,0.0,11.0,30,0.00,,,0.00,weatherlink.com 1.10,2017-06-26 08:32:00,
2017-06-26 01:47:00,87.8,53.0,29.84,SE,140,4.0,13.0,30,0.00,,,0.00,weatherlink.com 1.10,2017-06-26 08:47:00,
2017-06-26 02:02:00,87.9,55.0,29.83,South,177,2.0,11.0,32,0.00,,,0.00,weatherlink.com 1.10,2017-06-26 09:02:00,
2017-06-26 02:17:00,88.1,55.0,29.84,SSE,149,3.0,17.0,32,0.00,,,0.00,weatherlink.com 1.10,2017-06-26 09:17:00,
2017-06-26 02:32:00,87.6,54.0,29.84,SSE,166,10.0,14.0,32,0.00,,,0.00,weatherlink.com 1.10,2017-06-26 09:32:00,
2017-06-26 02:47:00,86.6,55.0,29.84,SSE,147,1.0,13.0,34,0.00,,,0.00,weatherlink.com 1.10,2017-06-26 09:47:00,
2017-06-26 03:02:00,85.7,54.0,29.84,South,172,0.0,4.0,34,0.00,,,0.00,weatherlink.com 1.10,2017-06-26 10:02:00,
2017-06-26 03:17:00,85.2,55.0,29.84,South,170,2.0,4.0,35,0.00,,,0.00,weatherlink.com 1.10,2017-06-26 10:17:00,
2017-06-26 03:32:00,85.1,54.0,29.84,SE,143,0.0,2.0,34,0.00,,,0.00,weatherlink.com 1.10,2017-06-26 10:32:00,
2017-06-26 03:47:00,85.0,54.0,29.84,ESE,107,0.0,9.0,35,0.00,,,0.00,weatherlink.com 1.10,2017-06-26 10:47:00,
2017-06-26 04:02:00,84.5,54.0,29.84,ESE,111,2.0,6.0,35,0.00,,,0.00,weatherlink.com 1.10,2017-06-26 11:02:00,
2017-06-26 04:17:00,83.7,54.0,29.85,ESE,110,0.0,8.0,36,0.00,,,0.00,weatherlink.com 1.10,2017-06-26 11:17:00,
2017-06-26 04:32:00,83.2,54.0,29.86,SE,141,0.0,3.0,37,0.00,,,0.00,weatherlink.com 1.10,2017-06-26 11:32:00,
2017-06-26 04:47:00,82.7,55.0,29.86,SSW,204,0.0,0.0,38,0.00,,,0.00,weatherlink.com 1.10,2017-06-26 11:47:00,
2017-06-26 05:02:00,82.5,54.0,29.87,SSE,152,0.0,0.0,38,0.00,,,0.00,weatherlink.com 1.10,2017-06-26 12:02:00,
2017-06-26 05:17:00,82.1,55.0,29.87,SE,134,0.0,0.0,40,0.00,,,0.00,weatherlink.com 1.10,2017-06-26 12:17:00,
2017-06-26 05:32:00,81.6,55.0,29.88,NNW,332,0.0,0.0,40,0.00,,,0.00,weatherlink.com 1.10,2017-06-26 12:32:00,
2017-06-26 05:47:00,81.8,56.0,29.88,ENE,64,0.0,0.0,41,0.00,,,0.00,weatherlink.com 1.10,2017-06-26 12:47:00,
2017-06-26 06:02:00,82.9,56.0,29.89,SSE,155,0.0,0.0,40,0.00,,,0.00,weatherlink.com 1.10,2017-06-26 13:02:00,
2017-06-26 06:17:00,84.0,56.0,29.89,SSE,156,0.0,0.0,38,0.00,,,0.00,weatherlink.com 1.10,2017-06-26 13:17:00,
2017-06-26 06:33:00,84.6,56.0,29.89,SSE,163,0.0,0.0,38,0.00,,,0.00,weatherlink.com 1.10,2017-06-26 13:33:00,
2017-06-26 06:47:00,85.0,57.0,29.89,SSE,166,0.0,1.0,38,0.00,,,0.00,weatherlink.com 1.10,2017-06-26 13:47:00,
2017-06-26 07:02:00,85.6,56.0,29.89,SE,130,0.0,0.0,36,0.00,,,0.00,weatherlink.com 1.10,2017-06-26 14:02:00,
2017-06-26 07:17:00,86.1,56.0,29.89,SE,143,0.0,2.0,36,0.00,,,0.00,weatherlink.com 1.10,2017-06-26 14:17:00,
2017-06-26 07:32:00,86.8,56.0,29.89,SE,135,0.0,5.0,35,0.00,,,0.00,weatherlink.com 1.10,2017-06-26 14:32:00,
2017-06-26 07:47:00,87.6,56.0,29.89,ESE,115,0.0,7.0,34,0.00,,,0.00,weatherlink.com 1.10,2017-06-26 14:47:00,
2017-06-26 08:02:00,87.6,56.0,29.89,SSE,147,0.0,7.0,34,0.00,,,0.00,weatherlink.com 1.10,2017-06-26 15:02:00,
2017-06-26 08:17:00,88.5,56.0,29.89,ESE,115,0.0,7.0,33,0.00,,,0.00,weatherlink.com 1.10,2017-06-26 15:17:00,
2017-06-26 08:32:00,89.5,56.0,29.89,SE,131,0.0,2.0,32,0.00,,,0.00,weatherlink.com 1.10,2017-06-26 15:32:00,
2017-06-26 08:47:00,90.6,56.0,29.89,ESE,104,0.0,2.0,31,0.00,,,0.00,weatherlink.com 1.10,2017-06-26 15:47:00,
2017-06-26 09:02:00,91.8,56.0,29.88,SE,145,0.0,1.0,30,0.00,,,0.00,weatherlink.com 1.10,2017-06-26 16:02:00,
2017-06-26 09:17:00,92.5,56.0,29.87,NNW,328,0.0,0.0,29,0.00,,,0.00,weatherlink.com 1.10,2017-06-26 16:17:00,
2017-06-26 09:32:00,94.2,56.0,29.87,NNW,330,0.0,0.0,28,0.00,,,0.00,weatherlink.com 1.10,2017-06-26 16:32:00,
2017-06-26 09:47:00,94.8,56.0,29.87,East,101,0.0,2.0,27,0.00,,,0.00,weatherlink.com 1.10,2017-06-26 16:47:00,
2017-06-26 10:03:00,96.7,57.0,29.86,NNE,33,0.0,0.0,26,0.00,,,0.00,weatherlink.com 1.10,2017-06-26 17:03:00,
2017-06-26 10:17:00,96.6,55.0,29.86,West,263,0.0,0.0,25,0.00,,,0.00,weatherlink.com 1.10,2017-06-26 17:17:00,
2017-06-26 10:32:00,98.4,56.0,29.85,North,356,0.0,0.0,24,0.00,,,0.00,weatherlink.com 1.10,2017-06-26 17:32:00,
2017-06-26 10:48:00,97.7,55.0,29.85,ESE,110,0.0,0.0,24,0.00,,,0.00,weatherlink.com 1.10,2017-06-26 17:48:00,
2017-06-26 11:03:00,100.6,57.0,29.84,ESE,104,0.0,0.0,23,0.00,,,0.00,weatherlink.com 1.10,2017-06-26 18:03:00,
2017-06-26 11:18:00,99.6,56.0,29.84,NNW,330,1.0,11.0,23,0.00,,,0.00,weatherlink.com 1.10,2017-06-26 18:18:00,
2017-06-26 11:33:00,100.1,56.0,29.83,NNW,342,1.0,7.0,23,0.00,,,0.00,weatherlink.com 1.10,2017-06-26 18:33:00,
2017-06-26 11:48:00,99.4,56.0,29.83,NNW,343,0.0,14.0,23,0.00,,,0.00,weatherlink.com 1.10,2017-06-26 18:48:00,
2017-06-26 12:03:00,99.4,56.0,29.82,North,11,0.0,13.0,23,0.00,,,0.00,weatherlink.com 1.10,2017-06-26 19:03:00,
2017-06-26 12:18:00,100.0,55.0,29.82,NNW,338,1.0,6.0,22,0.00,,,0.00,weatherlink.com 1.10,2017-06-26 19:18:00,
2017-06-26 12:33:00,101.2,55.0,29.81,SSW,207,0.0,10.0,21,0.00,,,0.00,weatherlink.com 1.10,2017-06-26 19:33:00,
2017-06-26 12:48:00,101.3,55.0,29.81,NW,311,5.0,13.0,21,0.00,,,0.00,weatherlink.com 1.10,2017-06-26 19:48:00,
2017-06-26 13:03:00,102.6,53.0,29.80,North,4,2.0,7.0,19,0.00,,,0.00,weatherlink.com 1.10,2017-06-26 20:03:00,
2017-06-26 13:18:00,102.2,53.0,29.80,North,350,0.0,19.0,19,0.00,,,0.00,weatherlink.com 1.10,2017-06-26 20:18:00,
2017-06-26 13:33:00,102.7,53.0,29.79,NNW,331,0.0,14.0,19,0.00,,,0.00,weatherlink.com 1.10,2017-06-26 20:33:00,
2017-06-26 13:48:00,102.5,53.0,29.78,NW,322,0.0,21.0,19,0.00,,,0.00,weatherlink.com 1.10,2017-06-26 20:48:00,
2017-06-26 14:03:00,103.0,53.0,29.78,NE,47,0.0,12.0,19,0.00,,,0.00,weatherlink.com 1.10,2017-06-26 21:03:00,
2017-06-26 14:18:00,103.0,53.0,29.77,ENE,77,0.0,20.0,19,0.00,,,0.00,weatherlink.com 1.10,2017-06-26 21:18:00,
2017-06-26 14:33:00,103.6,52.0,29.77,North,360,12.0,17.0,18,0.00,,,0.00,weatherlink.com 1.10,2017-06-26 21:33:00,
2017-06-26 14:48:00,102.9,55.0,29.76,NW,326,11.0,20.0,20,0.00,,,0.00,weatherlink.com 1.10,2017-06-26 21:48:00,
2017-06-26 15:03:00,103.7,53.0,29.76,NW,325,9.0,20.0,18,0.00,,,0.00,weatherlink.com 1.10,2017-06-26 22:03:00,
2017-06-26 15:18:00,104.5,52.0,29.75,NNE,29,16.0,19.0,17,0.00,,,0.00,weatherlink.com 1.10,2017-06-26 22:18:00,
2017-06-26 15:33:00,104.4,48.0,29.75,NNW,338,11.0,23.0,15,0.00,,,0.00,weatherlink.com 1.10,2017-06-26 22:33:00,
2017-06-26 15:48:00,104.4,50.0,29.74,North,354,14.0,21.0,16,0.00,,,0.00,weatherlink.com 1.10,2017-06-26 22:48:00,
2017-06-26 16:04:00,104.1,50.0,29.73,NNW,330,11.0,19.0,16,0.00,,,0.00,weatherlink.com 1.10,2017-06-26 23:04:00,
2017-06-26 16:18:00,104.6,48.0,29.73,NNW,338,10.0,19.0,15,0.00,,,0.00,weatherlink.com 1.10,2017-06-26 23:18:00,
2017-06-26 16:33:00,104.4,46.0,29.73,NW,318,9.0,25.0,14,0.00,,,0.00,weatherlink.com 1.10,2017-06-26 23:33:00,
2017-06-26 16:48:00,104.5,45.0,29.73,NNW,345,13.0,22.0,13,0.00,,,0.00,weatherlink.com 1.10,2017-06-26 23:48:00,
2017-06-26 17:03:00,104.4,46.0,29.73,SE,129,7.0,20.0,14,0.00,,,0.00,weatherlink.com 1.10,2017-06-27 00:03:00,
2017-06-26 17:18:00,104.3,46.0,29.73,NE,53,2.0,17.0,14,0.00,,,0.00,weatherlink.com 1.10,2017-06-27 00:18:00,
2017-06-26 17:33:00,104.1,44.0,29.72,NE,46,4.0,20.0,13,0.00,,,0.00,weatherlink.com 1.10,2017-06-27 00:33:00,
2017-06-26 17:48:00,103.4,46.0,29.73,NNE,29,3.0,15.0,14,0.00,,,0.00,weatherlink.com 1.10,2017-06-27 00:48:00,